Home   Weather   Entebbe   Past weeks

Flag for Uganda Past Weather in Entebbe, Uganda — Yesterday and Last 2 Weeks

Now
70 °F

Passing clouds.


Feels Like: 70 °F
Forecast: 69 / 76 °F
Wind: 5 mph from South

Location: Entebbe Airport

Current Time: May 25, 2017 at 2:41:17 am

Latest Report: May 25, 2017 at 2:00 am


Visibility: N/A

Pressure: 30.01 "Hg (26.23 "Hg at 1160m altitude)

Humidity: 100%

Dew Point: 70 °F

Location of EntebbeLocation

Past Weather in Entebbe — Graph

°F

Entebbe Temperature Yesterday

Maximum temperature yesterday: 79 °F (at 2:00 pm)
Minimum temperature yesterday: 70 °F (at 8:00 am)
Average temperature yesterday: 74 °F

High & Low Weather Summary for the Past Weeks

 TemperatureHumidityPressure
High86 °F (May 20, 5:00 pm)100% (May 15, 1:00 am)30.21 "Hg (May 15, 1:00 am)
Low66 °F (May 14, 5:30 am)52% (May 20, 5:00 pm)29.95 "Hg (May 10, 4:00 pm)
Average73 °F84%30.05 "Hg
* Reported May 10 2:00 am — May 25 1:30 am, Entebbe. Weather by CustomWeather, © 2017

Note: Actual official high and low records may vary slightly from our data, if they occured in-between our weather recording intervals... More about our weather records

Advertising

Entebbe Weather History for the Previous 24 Hours

Scroll right to see more
 ConditionsComfort  
Time TempWeatherWind HumidityBarometerVisibility
1:30 am
Thu, May 25
70 °FPassing clouds.3 mph100%30.04 "HgN/A
1:00 am70 °FPassing clouds.6 mph94%30.04 "HgN/A
12:30 am70 °FPassing clouds.6 mph94%30.04 "HgN/A
12:00 am70 °FPassing clouds.7 mph94%30.04 "HgN/A
11:30 pm
Wed, May 24
70 °FPassing clouds.8 mph94%30.04 "HgN/A
11:00 pm70 °FPassing clouds.6 mph94%30.07 "HgN/A
10:30 pm72 °FPassing clouds.6 mph88%30.07 "HgN/A
10:00 pm72 °FPassing clouds.6 mph88%30.07 "HgN/A
9:30 pm72 °FPassing clouds.6 mph88%30.07 "HgN/A
9:00 pm72 °FPassing clouds.8 mph88%30.04 "HgN/A
8:30 pm73 °FPassing clouds.10 mph83%30.04 "HgN/A
8:00 pm73 °FPassing clouds.12 mph83%30.01 "HgN/A
7:30 pm73 °FPassing clouds.9 mph78%30.01 "HgN/A
7:00 pm75 °FPassing clouds.8 mph74%30.01 "HgN/A
6:30 pm75 °FPassing clouds.8 mph74%30.01 "HgN/A
6:00 pm77 °FPassing clouds.8 mph74%30.01 "HgN/A
5:00 pm77 °FPassing clouds.12 mph74%30.01 "HgN/A
4:00 pm79 °FPassing clouds.9 mph70%30.01 "HgN/A
3:00 pm79 °FPassing clouds.14 mph74%30.04 "HgN/A
2:00 pm79 °FScattered clouds.16 mph74%30.07 "HgN/A
1:00 pm77 °FScattered clouds.17 mph79%30.07 "HgN/A
12:00 pm77 °FScattered clouds.9 mph74%30.09 "HgN/A
11:00 am77 °FPartly sunny.14 mph74%30.12 "HgN/A
10:00 am73 °FScattered clouds.9 mph89%30.12 "HgN/A
9:00 am72 °FBroken clouds.5 mph94%30.12 "HgN/A
8:00 am70 °FBroken clouds.3 mph94%30.09 "HgN/A
Weather by CustomWeather, © 2017

See weather overviewHow to use our weather pages